Shreveport, LA

2:13 PM CDT on July 27, 2017 (GMT -0500)
Shreveport Regional

Weather History for KSHV - June, 2014

Change the Weather History Date:

Friday, June 27, 2014

  Actual Average Record
Temperature  
Mean Temperature 78 °F 82 °F  
Max Temperature 86 °F 92 °F 102 °F (1875)
Min Temperature 70 °F 72 °F 57 °F (1974)
Degree Days  
Heating Degree Days 0 0  
Month to date heating degree days 0 0  
Since 1 June heating degree days 0 0  
Since 1 July heating degree days 2567 2226  
Cooling Degree Days 13 17  
Month to date cooling degree days 414 394  
Year to date cooling degree days 784 792  
Since 1 June cooling degree days 414 394  
Growing Degree Days 28 (Base 50)    
Moisture  
Dew Point 70 °F    
Average Humidity 79    
Maximum Humidity 93    
Minimum Humidity 65    
Precipitation  
Precipitation T in 0.16 in 6.91 in (1986)
Month to date precipitation 2.86 4.90  
Year to date precipitation 20.93 27.11  
Snow  
Snow 0.00 in - - ()
Month to date snowfall 0.0  
Since 1 June snowfall 0.0  
Since 1 July snowfall 1.0  
Snow Depth 0.00 in    
Sea Level Pressure  
Sea Level Pressure 29.96 in    
Wind  
Wind Speed 10 mph (SSE)    
Max Wind Speed 21 mph    
Max Gust Speed 26 mph    
Visibility 10 miles    
Events Rain    
T = Trace of Precipitation, MM = Missing Value Source: NWS Daily Summary

Daily Weather History Graph

Daily Weather History Graph

Search for Another Location

Airport or City:

Trip Planner

Search our weather history database for the weather conditions in past years. The results will help you decide how hot, cold, wet, or windy it might be!

Date:

Astronomy

Jun. 27, 2014 Rise Set
Actual Time 6:10 AM CDT 8:26 PM CDT
Civil Twilight 5:41 AM CDT 8:54 PM CDT
Nautical Twilight 5:07 AM CDT 9:29 PM CDT
Astronomical Twilight 4:29 AM CDT 10:07 PM CDT
Moon 6:35 AM CDT 8:38 PM CDT
Length of Visible Light 15h 13m
Length of Day
14h 16m
New Moon, 0% of the Moon is Illuminated
Jun 27
New Moon
Jul 5
First Quarter
Jul 12
Full
Jul 18
Last Quarter
Jul 26
New

Hourly Weather History & Observations

Time (CDT) Temp. Heat Index Dew Point Humidity Pressure Visibility Wind Dir Wind Speed Gust Speed Precip Events Conditions
12:56 AM 71.1 °F - 69.1 °F 93% 29.96 in 10.0 mi SSE 6.9 mph - N/A   Mostly Cloudy
1:56 AM 71.1 °F - 68.0 °F 90% 29.94 in 10.0 mi SSE 5.8 mph - N/A   Mostly Cloudy
2:56 AM 71.1 °F - 68.0 °F 90% 29.91 in 10.0 mi South 8.1 mph - N/A   Mostly Cloudy
3:04 AM 71.6 °F - 69.8 °F 94% 29.92 in 10.0 mi South 10.4 mph - N/A   Mostly Cloudy
3:31 AM 69.8 °F - 69.8 °F 100% 29.92 in 10.0 mi South 6.9 mph - N/A   Mostly Cloudy
3:56 AM 71.1 °F - 69.1 °F 93% 29.92 in 10.0 mi South 10.4 mph - N/A   Overcast
4:56 AM 71.1 °F - 69.1 °F 93% 29.94 in 10.0 mi SSE 5.8 mph - N/A   Overcast
5:56 AM 71.1 °F - 69.1 °F 93% 29.95 in 10.0 mi SE 6.9 mph - N/A   Overcast
6:56 AM 72.0 °F - 69.1 °F 91% 29.97 in 10.0 mi SE 5.8 mph - N/A   Overcast
7:56 AM 73.0 °F - 70.0 °F 90% 29.99 in 10.0 mi SSE 5.8 mph - N/A   Overcast
8:56 AM 75.0 °F - 70.0 °F 84% 30.00 in 10.0 mi SE 6.9 mph - N/A   Overcast
9:10 AM 75.2 °F - 69.8 °F 83% 30.00 in 10.0 mi SE 8.1 mph - 0.00 in Rain Light Rain
9:29 AM 75.2 °F - 71.6 °F 89% 30.01 in 10.0 mi SE 6.9 mph - 0.00 in   Overcast
9:56 AM 77.0 °F - 71.1 °F 82% 30.00 in 10.0 mi South 6.9 mph - 0.00 in   Overcast
10:34 AM 78.8 °F - 71.6 °F 78% 30.01 in 10.0 mi SSE 9.2 mph - N/A   Overcast
10:41 AM 78.8 °F - 71.6 °F 78% 30.01 in 10.0 mi SSE 10.4 mph - N/A   Overcast
10:56 AM 79.0 °F - 71.1 °F 77% 30.00 in 10.0 mi South 11.5 mph - N/A   Overcast
11:56 AM 78.1 °F - 72.0 °F 81% 30.00 in 10.0 mi SSE 12.7 mph - 0.00 in   Overcast
12:56 PM 80.1 °F 83.8 °F 72.0 °F 76% 29.98 in 10.0 mi SSE 10.4 mph - N/A   Overcast
1:56 PM 80.1 °F 83.6 °F 71.1 °F 74% 29.96 in 10.0 mi SSE 19.6 mph 26.5 mph N/A   Overcast
2:56 PM 84.9 °F 90.7 °F 72.0 °F 65% 29.94 in 10.0 mi SSE 11.5 mph 20.7 mph N/A   Overcast
3:56 PM 82.9 °F 87.5 °F 71.1 °F 67% 29.94 in 10.0 mi SSE 13.8 mph 20.7 mph N/A   Overcast
4:56 PM 84.0 °F 89.6 °F 72.0 °F 67% 29.94 in 10.0 mi SE 16.1 mph 25.3 mph N/A   Mostly Cloudy
5:56 PM 84.0 °F 89.0 °F 71.1 °F 65% 29.92 in 10.0 mi SSE 17.3 mph 23.0 mph N/A   Scattered Clouds
6:56 PM 82.0 °F 85.9 °F 70.0 °F 67% 29.92 in 10.0 mi SSE 15.0 mph - N/A   Mostly Cloudy
7:56 PM 79.0 °F - 70.0 °F 74% 29.93 in 10.0 mi SSE 11.5 mph - N/A   Mostly Cloudy
8:56 PM 75.9 °F - 69.1 °F 79% 29.92 in 10.0 mi SSE 9.2 mph - N/A   Mostly Cloudy
9:56 PM 73.9 °F - 69.1 °F 85% 29.93 in 10.0 mi SSE 10.4 mph - N/A   Mostly Cloudy
10:56 PM 73.0 °F - 68.0 °F 84% 29.93 in 10.0 mi SSE 8.1 mph - N/A   Mostly Cloudy
11:56 PM 72.0 °F - 66.9 °F 84% 29.94 in 10.0 mi SSE 9.2 mph - N/A   Mostly Cloudy